Regional Weather Roundup
Issued by NWS

Home | Current Version | Previous Version | Graphics & Text | Print | Product List | Glossary Off
Versions: 1 2 3 4 5 6 7 8 9 10 11 12 13 14 15 16 17 18 19 20 21 22 23 24 25 26 27 28 29 30 31 32 33 34 35 36 37 38 39 40 41 42 43 44 45 46 47 48 49 50

152
ASUS43 KMPX 220110
RWRMN
WEATHER ROUNDUP FOR MINNESOTA
NATIONAL WEATHER SERVICE TWIN CITIES/CHANHASSEN MN
800 PM CDT SAT APR 21 2018


NOTE: "FAIR" INDICATES FEW OR NO CLOUDS BELOW 12,000 FEET WITH NO
SIGNIFICANT WEATHER AND/OR OBSTRUCTIONS TO VISIBILITY. N/A MEANS
CURRENT SKY AND/OR WEATHER CONDITIONS ARE NOT AVAILABLE.

MNZ060>063-068>070-220200-
   Twin Cities Metro

CITY           SKY/WX    TMP DP  RH WIND       PRES   REMARKS
TWIN CITIES    FAIR      56  25  30 SW7       30.33S
ST PAUL        FAIR      54  20  26 S5        30.33S
CRYSTAL        FAIR      54  15  21 W5        30.32R
BLAINE         PTCLDY    55  18  22 E5        30.33R
LAKEVILLE      FAIR      48  36  61 CALM      30.33S
EDEN PRAIRIE   FAIR      54  29  38 W3        30.32S
SOUTH ST PAUL  FAIR      53  35  50 CALM      30.33R
LAKE ELMO      FAIR      50  36  57 S7        30.34R
$$
MNZ001>005-007-008-013>017-022>024-027-028-220200-
   Northwest Minnesota

CITY           SKY/WX    TMP DP  RH WIND       PRES   REMARKS
BEMIDJI        FAIR      55  29  37 S6        30.27S
HALLOCK        FAIR      55  46  71 S12       30.23S
ROSEAU         FAIR      55  45  67 SW5       30.25S
WARROAD        FAIR      55  45  67 W5        30.26R
THIEF RVR FALL FAIR      54  43  66 W5        30.27S
CROOKSTON      FAIR      55  45  67 SW6       30.26S
FOSSTON        FAIR      54  36  50 S8        30.28S
DETROIT LAKES  FAIR      52  34  50 CALM      30.30R
MOORHEAD       FAIR      55  43  62 SE8       30.27S
PARK RAPIDS    FAIR      54  34  46 CALM      30.28S
MAHNOMEN       FAIR      53  39  60 S8        30.27S
$$
MNZ006-009>011-018-025>026-220200-
   North Central Minnesota

CITY           SKY/WX    TMP DP  RH WIND       PRES   REMARKS
BAUDETTE       FAIR      55  34  45 S8        30.25S
FLAG ISLAND    FAIR      45  28  53 CALM      30.24S
INTL FALLS     FAIR      54  27  35 SW5       30.26S
WASKISH        FAIR      54  30  40 CALM      30.27S
BIG FORK       FAIR      52  25  35 CALM      30.29S
LONGVILLE      FAIR      54  27  35 SE3       30.30R
GRAND RAPIDS   FAIR      51  22  31 S5        30.32R
CRANE LAKE     FAIR      45  25  45 CALM      30.30R
ORR            FAIR      54  16  22 CALM      30.27R
COOK           FAIR      54  21  28 CALM      30.29S
WALKER         FAIR      50  27  40 E3        30.29R
$$
MNZ012-019>021-037-220200-
   Northeast Minnesota

CITY           SKY/WX    TMP DP  RH WIND       PRES   REMARKS
DULUTH         FAIR      51  21  30 SE5       30.32R
ELY            FAIR      54  16  22 S5        30.29R
HIBBING        FAIR      50  20  30 CALM      30.29S
EVELETH        FAIR      53  18  25 S5        30.31R
DULUTH HARBOR  FAIR      39  30  70 N5        30.34R
TWO HARBORS    FAIR      52  21  30 CALM      30.31R
SILVER BAY     FAIR      45  16  31 CALM      30.31S
GRAND MARAIS     N/A     37  30  75 CALM      30.34S
G MARAIS ARPRT FAIR      45   9  23 CALM      30.33S
$$
MNZ029>031-032-039>041-046>048-054>057-064-220200-
   West Central Minnesota

CITY           SKY/WX    TMP DP  RH WIND       PRES   REMARKS
FERGUS FALLS   FAIR      52  39  62 S7        30.27S
WHEATON        CLEAR     52  37  58 SE7       30.30S
MORRIS         CLEAR     52  39  62 SE5       30.30S
ALEXANDRIA     FAIR      53  34  48 S6        30.31S
ELBOW LAKE     FAIR      49  39  70 S7        30.30F
WADENA         FAIR      52  36  54 CALM      30.30R
GLENWOOD       FAIR      50  37  62 S5        30.32S
APPLETON       CLEAR     52  36  54 S3        30.31S
BENSON         CLEAR     52  37  58 CALM      30.32F
ORTONVILLE     CLEAR     50  39  66 SE5       30.30S
MADISON        PTCLDY    48  43  81 SE6       30.31S
WILLMAR        FAIR      52  39  62 CALM      30.35R
$$
MNZ033>034-036-042>043-049>051-058-059-220200-
   Central Minnesota

CITY           SKY/WX    TMP DP  RH WIND       PRES   REMARKS
ST CLOUD       FAIR      53  31  42 S5        30.32S
SAUK CENTRE    FAIR      51  34  52 S5        30.32R
PAYNESVILLE    FAIR      53  34  49 SE3       30.33S
AITKIN         FAIR      46  18  31 SE5       30.31R
PINE RIVER     FAIR      52  28  40 CALM      30.33R
BRAINERD       FAIR      51  28  41 SE5       30.31S
STAPLES        FAIR      52  30  43 S3        30.31S
LONG PRAIRIE   FAIR      48  36  61 SE5       30.32R
LITTLE FALLS   FAIR      52  23  32 CALM      30.33R
LITCHFIELD     FAIR      52  34  50 CALM      30.33S
BUFFALO        FAIR      53  25  33 CALM      30.34R
MAPLE LAKE     FAIR      51  33  49 CALM      30.34S
HUTCHINSON     FAIR      53  31  43 CALM      30.34S
$$
MNZ037-044-045-052-053-220200-
   East Central Minnesota

CITY           SKY/WX    TMP DP  RH WIND       PRES   REMARKS
PRINCETON      FAIR      54  25  32 CALM      30.33S
MORA           FAIR      48  25  40 CALM      30.35R
CAMBRIDGE      FAIR      54  32  43 CALM      30.33S
RUSH CITY      FAIR      51  21  30 CALM      30.33S
MOOSE LAKE     FAIR      54  21  28 S3        30.31R
HINCKLEY       FAIR      52  27  37 S3        30.33R
CLOQUET        FAIR      54   7  15 CALM      30.32R
MCGREGOR       FAIR      52  12  20 CALM      30.32R
$$
MNZ071>073-080-081-089-090-097-098-220200-
   Southwest Minnesota

CITY           SKY/WX    TMP DP  RH WIND       PRES   REMARKS
MONTEVIDEO     CLOUDY    48  37  66 SW5       30.32S
GRANITE FALLS  CLOUDY    47  41  80 S6        30.34R
CANBY          CLOUDY    44  37  77 E5        30.32S
MARSHALL       CLOUDY    43  30  60 SE7       30.33S
REDWOOD FALLS  CLOUDY    46  37  71 S5        30.33R
OLIVIA         CLOUDY    50  37  62 CALM      30.32S
PIPESTONE      PTCLDY   N/A N/A N/A SE6       30.30S
WINDOM         CLOUDY    41  25  52 NE3       30.33R
WORTHINGTON    CLOUDY    41  35  79 NE6       30.32S
JACKSON        CLOUDY    37  32  81 E5        30.33S
TRACY          CLOUDY    43  35  72 SE3       30.33R
SLAYTON        CLOUDY    40  33  75 E5        30.32S
$$
MNZ065>067-074>077-082>085-091>093-220200-
   South Central Minnesota

CITY           SKY/WX    TMP DP  RH WIND       PRES   REMARKS
MANKATO        CLOUDY    48  36  63 SE5       30.34S
NEW ULM        CLOUDY    46  36  66 CALM      30.33S
ST JAMES       CLOUDY    41  36  81 CALM      30.34S
FAIRMONT       CLOUDY    43  34  70 E5        30.34R
GLENCOE        FAIR      51  34  51 CALM      30.32S
FARIBAULT      CLOUDY    52  36  54 CALM      30.34S
OWATONNA       CLOUDY    46  37  71 E3        30.34S
WASECA         CLOUDY    45  34  65 NE3       30.35S
ALBERT LEA     CLOUDY    45  34  65 SE3       30.35R
$$
MNZ078>079-086>088-094>096-220200-
   Southeast Minnesota

CITY           SKY/WX    TMP DP  RH WIND       PRES   REMARKS
ROCHESTER      CLOUDY    47  36  65 NE6       30.35R
RED WING       FAIR      54  27  35 CALM      30.34R
STANTON        FAIR      50  37  60 S5        30.33S
DODGE CENTER   CLOUDY    46  39  76 NE3       30.35R
WINONA         CLOUDY    52  32  46 CALM      30.34R
AUSTIN         CLOUDY    45  37  76 CALM      30.35R
PRESTON        CLOUDY    49  32  52 CALM      30.35R
$$
ABBREVIATIONS USED IN REMARKS
   TC - TEMPERATURES IN CELSIUS
  WCI - WIND CHILL INDEX
   HX - HEAT INDEX
  VSB - VISIBILITY
$$




USA.gov is the U.S. government's official web portal to all federal, state and local government web resources and services.